Location: Arboyeti
(42.1122°N, 44.6017°E)
Time: 21:24:34
(UTC+00:00)

SPOT 1/Viking Rocket - Pass Details

Date: 19 April 2021
Orbit: 776 x 794 km, 98.4° (Epoch: 17 May)

Event Time Altitude Azimuth Distance (km) Brightness Sun altitude
Exits shadow 17:46:18 42° 121° (ESE) 1,130 3.9 -20.4°
Maximum altitude 17:47:43 55° 72° (ENE) 957 3.7 -20.6°
Drops below altitude 10° 17:52:49 10° 356° (N) 2,371 6.6 -21.3°
Sets 17:55:11 0° 352° (N) 3,304 7.5 -21.6°
